This is the latest recevied weather packets stored in our database for station/object Ostrach. If no packets are shown the sender has not sent any weather packets the latest 10 day(s).
| Time | Temp. | Humidity | Pressure | Rain* | Wind** | Luminosity | Snow |
|---|---|---|---|---|---|---|---|
| 1788402730 | 11.11° C | 90% | 1019.8 hPa | 0 mm | - | - | - |
| 1788400929 | 11.11° C | 90% | 1019.8 hPa | 0 mm | - | - | - |
| 1788399130 | 11.11° C | 89% | 1019.9 hPa | 0 mm | - | - | - |
| 1788397329 | 11.67° C | 89% | 1019.8 hPa | 0 mm | - | - | - |
| 1788395531 | 11.67° C | 87% | 1019.6 hPa | 0 mm | - | - | - |
| 1788393732 | 12.22° C | 86% | 1019.7 hPa | 0 mm | - | - | - |
| 1788391932 | 12.78° C | 85% | 1019.8 hPa | 0 mm | - | - | - |
| 1788390131 | 13.89° C | 83% | 1019.7 hPa | 0 mm | - | - | - |
| 1788388331 | 14.44° C | 81% | 1019.8 hPa | 0 mm | - | - | - |
| 1788386531 | 15.56° C | 80% | 1019.7 hPa | 0 mm | - | - | - |
| 1788384731 | 16.11° C | 79% | 1019.5 hPa | 0 mm | - | - | - |
| 1788382931 | 16.67° C | 77% | 1019.4 hPa | 0 mm | - | - | - |
| 1788381131 | 17.22° C | 75% | 1019.2 hPa | 0 mm | - | - | - |
| 1788379331 | 17.78° C | 72% | 1019 hPa | 0 mm | - | - | - |
| 1788377531 | 18.33° C | 71% | 1018.8 hPa | 0 mm | - | - | - |
| 1788375756 | 19.44° C | 67% | 1018.6 hPa | 0 mm | - | - | - |
| 1788373931 | 20.56° C | 60% | 1018.3 hPa | 0 mm | - | - | - |
| 1788372131 | 22.22° C | 52% | 1018 hPa | 0 mm | - | - | - |
| 1788370330 | 23.33° C | 46% | 1017.8 hPa | 0 mm | - | - | - |
| 1788368531 | 24.44° C | 43% | 1017.5 hPa | 0 mm | - | - | - |
| 1788366732 | 25.56° C | 42% | 1017.5 hPa | 0 mm | - | - | - |
| 1788364931 | 25.56° C | 42% | 1017.4 hPa | 0 mm | - | - | - |
| 1788363130 | 25° C | 46% | 1017.5 hPa | 0 mm | - | - | - |
| 1788361331 | 25.56° C | 45% | 1017.4 hPa | 0 mm | - | - | - |
| 1788359531 | 25.56° C | 45% | 1017.7 hPa | 0 mm | - | - | - |
* Rain since midnight (hover to see other rain measurements)
** Current wind speed in m/s (hover to see current wind gust speed)